This demonstration page uses our WeatherBlox Daily Observations layout. Learn more.

Left ArrowRight Arrow

Hourly Observations for March 9, 2017

Temp ( °F °C ) Dew Point ( °F °C ) Humidity (%) Winds ( mph kmh ) Pressure ( in mb ) Visibility ( mi km ) Precip ( " mm )
12:52 am 00:52 Clear 51 10.6 27 -2.8 39 39 SSE 14 22 30.12 1020 10 16 0.00 0.00
1:52 am 01:52 Clear 50 10 28 -2.2 43 43 S 9 15 30.11 1020 10 16 0.00 0.00
2:52 am 02:52 Clear 48 8.9 28 -2.2 46 46 S 9 15 30.09 1019 10 16 0.00 0.00
3:52 am 03:52 Clear 46 7.8 29 -1.7 51 51 S 8 13 30.09 1019 10 16 0.00 0.00
4:52 am 04:52 Clear 45 7.2 29 -1.7 54 54 S 9 15 30.09 1019 10 16 0.00 0.00
5:52 am 05:52 Clear 47 8.3 30 -1.1 52 52 S 9 15 30.10 1019 10 16 0.00 0.00
6:52 am 06:52 Sunny 47 8.3 31 -0.6 54 54 S 10 17 30.10 1019 10 16 0.00 0.00
7:52 am 07:52 Sunny 53 11.7 35 1.7 51 51 S 5 7 30.11 1020 10 16 0.00 0.00
8:52 am 08:52 Sunny 61 16.1 41 5 48 48 SSW 8 13 30.08 1019 10 16 0.00 0.00
9:52 am 09:52 Sunny 67 19.4 47 8.3 49 49 S 7 11 30.07 1018 10 16 0.00 0.00
10:52 am 10:52 Sunny 71 21.7 51 10.6 49 49 SSW 8 13 30.04 1017 10 16 0.00 0.00
11:52 am 11:52 Sunny 70 21.1 52 11.1 53 53 S 9 15 30.01 1016 10 16 0.00 0.00
12:52 pm 12:52 Sunny 77 25 55 12.8 47 47 S 8 13 29.95 1014 10 16 0.00 0.00
1:52 pm 13:52 Mostly Cloudy 77 25 54 12.2 45 45 S 13 20 29.88 1012 10 16 0.00 0.00
2:52 pm 14:52 Partly Cloudy 80 26.7 52 11.1 38 38 SW 22 35 29.88 1012 10 16 0.00 0.00
3:52 pm 15:52 Mostly Cloudy 77 25 55 12.8 47 47 SW 21 33 29.88 1012 10 16 0.00 0.00
3:54 pm 15:54 Mostly Cloudy with Thunderstorms 77 25 55 13 47 47 SW 21 33 29.85 1011 10 16 0.00 0.00
4:52 pm 16:52 Mostly Cloudy with Thunderstorms 70 21.1 55 12.8 59 59 NNE 10 17 29.88 1012 10 16 0.00 0.00
5:52 pm 17:52 Mostly Cloudy with Thunderstorms 59 15 54 12.2 83 83 NNE 18 30 29.93 1013 10 16 0.02 0.51
6:52 pm 18:52 Mostly Cloudy with Thunderstorms 58 14.4 53 11.7 84 84 ENE 8 13 29.94 1014 10 16 0.00 0.03
7:10 pm 19:10 Cloudy with Thunderstorms 55 13 54 12 94 94 NE 8 13 29.97 1015 2 3 0.00 0.00
7:18 pm 19:18 Mostly Cloudy with Thunderstorms 57 14 54 12 88 88 NE 13 20 29.97 1015 10 16 0.00 0.00
7:52 pm 19:52 Cloudy with Thunderstorms 57 13.9 53 11.7 87 87 ENE 6 9 29.98 1015 10 16 0.17 4.32
8:41 pm 20:41 Cloudy 56 13.3 54 12.2 93 93 N 3 6 30.03 1017 10 16 0.00 0.00
8:52 pm 20:52 Cloudy 56 13.3 53 11.7 90 90 N 7 11 30.01 1016 10 16 0.00 0.00
9:52 pm 21:52 Mostly Clear 53 11.7 51 10.6 93 93 N 10 17 30.09 1019 10 16 0.00 0.00
10:52 pm 22:52 Clear 51 10.6 45 7.2 80 80 N 14 22 30.12 1020 10 16 0.00 0.00
11:52 pm 23:52 Clear 47 8.3 38 3.3 71 71 NNE 14 22 30.17 1022 10 16 0.00 0.00

Powered by AerisWeather